Location: Clover
(42.5131°N, 114.6874°W)
Time: 08:16:08
(UTC+00:00)

Courier 1B - Pass Details

Date: 16 November 2024
Orbit: 962 x 1208 km, 28.3° (Epoch: 06 December)

Event Time Altitude Azimuth Distance (km) Brightness Sun altitude
Rises 00:35:22 0° 252° (WSW) 3,641 13.5 -4.1°
Reaches altitude 10° 00:38:56 10° 234° (SW) 2,685 11.4 -4.8°
Maximum altitude 00:43:00 18° 194° (SSW) 2,189 9.9 -5.5°
Drops below altitude 10° 00:47:05 10° 155° (SSE) 2,703 9.8 -6.2°
Sets 00:50:42 0° 136° (SE) 3,676 10.3 -6.8°
